Vertical_Velocity
-1 -0 1 0 -2 -1 0 -0 -1 -2 -2 -1 -0 -2 -2 -2 -1 -1 4 -3 -1 -3 -1 -2 -2 -1 -0 2 -2 -5 6 0 -0 1 5 -0 0 0 -3 1 1 1 1 -2 -4
-0 0 -1 2 1 -2 -1 -0 -1 -2 -1 -1 -2 -0 -2 -3 -2 -0 -2 -1 -1 1 0 -0 1 -3 4 1 1 6 3 0 1 0 1 -0 1 2 1 -1 -0 2 4 -3 -2
1 -1 1 -1 0 -0 -1 0 -0 -2 -2 -2 -3 -3 -2 -3 -4 5 1 -1 -1 -1 -1 -3 -2 -1 1 -2 -2 -1 3 1 1 -0 -2 -0 -2 -2 2 -1 2 1 -2 1 0
1 1 0 0 -1 2 -2 -2 0 -1 -2 -2 -1 -3 -3 -1 10 -1 -2 1 -1 -1 -2 -3 -1 2 0 1 -1 7 -1 0 1 0 1 -0 -1 -2 2 -4 -3 2 -3 -2 -0
0 -2 2 1 -0 -0 0 -1 -2 -1 1 -2 -2 -2 -4 -0 -2 -2 -2 -1 -3 -1 1 -1 -0 -0 1 -0 0 3 -1 -1 -1 -2 -0 2 -2 -2 -2 3 -4 -2 -6 -1 -0
3 -0 2 0 2 1 2 -0 -0 -1 -2 0 -1 -1 0 3 -4 -1 -2 -2 -2 -1 -2 1 -0 -3 -1 0 3 -1 0 -2 -2 -1 1 4 0 2 3 -1 3 -1 1 -1 -2
4 -1 2 3 1 0 2 -0 1 1 -0 -1 0 -2 -0 -13 -1 2 -3 1 -3 -3 3 -2 -1 2 -4 1 -2 -1 2 -1 -0 0 1 1 5 -1 1 -0 1 1 0 -1 -1
2 -1 1 2 2 2 1 4 1 0 3 0 -1 -2 -11 -1 -6 2 1 -2 2 -1 -0 -0 -5 -2 2 -4 2 4 4 2 7 1 1 6 -8 2 2 -3 -1 -1 -1 0 -2
6 2 1 2 3 5 5 5 4 1 2 -2 -1 1 -9 -2 1 -2 5 -2 -0 2 -2 -3 -1 1 1 4 4 3 0 1 -1 -1 1 6 -4 -3 -1 3 -1 -1 -0 0 -0
13 8 4 3 3 6 7 7 4 5 -2 5 -2 4 -0 -0 4 -2 1 3 0 2 1 5 4 3 4 5 -2 0 2 1 -1 5 1 -1 -6 -4 -3 -0 1 -1 -2 0 0
-5 21 4 8 6 7 5 2 2 5 3 -12 -2 2 1 -1 0 5 -1 1 1 5 1 0 7 -3 -6 -3 1 1 2 1 -4 -3 6 -1 -1 -3 -2 -0 0 -0 -1 0 -1
8 9 8 6 10 7 8 -11 -16 2 1 -15 2 4 -4 1 3 5 -0 2 2 -1 4 9 -2 -7 0 1 1 1 1 -5 -4 -1 6 -1 -5 -3 -0 0 -0 -1 -0 -0 3
7 -3 3 33 -4 27 0 -8 3 0 1 2 -11 -2 -4 0 -2 0 -6 -1 -1 4 0 -1 2 1 1 2 4 -1 1 -1 1 -0 0 5 -4 1 4 1 0 -0 -2 0 -0
-2 -1 9 23 67 -6 -2 1 6 -4 3 -1 3 -11 -2 1 -3 -2 -4 -7 4 -4 -1 -2 -1 -2 2 -0 2 4 -2 1 1 5 2 5 -1 2 2 2 1 1 1 1 0
-3 15 -2 2 -6 2 -18 -6 4 4 5 -5 11 4 6 -11 -6 4 -6 7 -3 -3 5 -6 1 3 4 -11 1 -5 0 -1 0 1 7 -1 10 -4 2 3 2 2 1 0 -1
3 8 7 22 27 8 2 -8 -12 -6 -10 8 -1 1 10 8 4 8 -0 11 -2 5 3 -5 -1 2 -8 -1 -3 -1 2 2 1 3 8 -10 7 -5 -0 -6 3 2 1 0 0
3 11 9 17 2 12 5 -9 -5 3 7 -1 -1 2 -1 1 11 4 2 11 -5 10 6 5 -3 2 -1 3 8 8 7 4 7 9 -7 1 9 -14 1 -0 -5 -2 1 0 0
6 10 3 7 17 2 12 3 4 -9 -6 3 -1 6 -4 -5 -1 1 6 6 8 5 2 -1 19 2 -3 -9 -12 -8 -5 -3 -3 -1 -4 2 -3 1 -1 -2 1 -1 -1 1 1
4 8 8 4 31 15 -14 7 -15 -7 -15 -2 14 2 4 6 -5 6 -1 -4 -9 -5 -1 2 0 3 1 -1 2 -9 13 -18 2 1 4 -4 -1 7 3 4 3 1 1 1 0
1 10 -2 -7 39 14 6 -6 -2 -3 -1 6 -5 -5 -2 -1 7 9 2 -11 -3 -4 2 -3 5 -1 -1 15 4 -1 -11 10 4 2 0 -3 -3 -4 5 1 2 4 -1 0 1
3 14 4 -2 20 37 -2 -3 0 -3 -9 -7 -3 0 -5 -7 -2 -3 -8 4 2 2 3 -2 6 9 5 2 -10 9 9 6 0 3 -1 0 -8 -2 -7 -6 -4 -3 -3 -2 -1
2 9 19 14 18 -1 -0 -7 -1 1 8 -1 -0 -4 -6 -1 0 2 -5 -4 -3 -10 -2 -10 -2 1 -15 1 -1 -6 -7 -4 2 1 -3 5 -21 -1 -2 -3 -2 -3 -3 -0 -1
-8 -1 -6 -1 2 2 7 0 -6 7 -2 3 1 -4 -1 -3 2 -0 -0 -3 -0 -1 -11 -7 1 3 6 11 8 3 -4 -2 0 3 -8 3 -11 1 1 3 -1 -1 -1 -0 0
8 4 11 42 -7 -8 -1 -0 4 7 1 -0 -6 1 2 4 2 -5 2 2 1 -3 2 5 0 -7 -14 -10 -7 7 2 0 3 8 -11 -14 -8 3 1 -1 2 1 -1 -0 -4
12 -3 -6 -0 5 2 -1 -2 2 3 -1 3 8 -4 -8 1 4 0 2 5 3 1 2 -0 -0 5 -3 -0 1 -3 -2 -1 5 -14 6 -25 0 -11 -5 -5 -8 -8 3 3 1
-7 -2 9 -1 4 12 2 -1 -5 7 -11 1 2 -3 0 -3 -16 -6 -5 -2 -9 4 1 1 1 1 -1 0 1 1 -1 0 -0 -2 4 4 -9 -4 -3 -1 6 -4 0 -1 -4
8 -1 9 -6 2 10 -13 -6 -6 -1 8 -14 -13 1 8 -19 0 4 -3 -4 -6 -9 -1 0 0 2 -8 -0 1 4 -17 -3 -3 0 -0 3 -35 -2 -1 0 -4 -3 -2 -5 0
Height
1519 1521 1524 1527 1529 1532 1534 1535 1537 1537 1538 1538 1539 1539 1539 1538 1538 1537 1538 1537 1535 1534 1534 1533 1533 1533 1533 1532 1531 1530 1523 1518 1520 1525 1527 1533 1531 1531 1533 1532 1532 1532 1532 1532 1530
1513 1517 1519 1522 1525 1528 1531 1532 1533 1535 1536 1536 1537 1537 1537 1537 1536 1535 1534 1534 1534 1534 1535 1534 1533 1533 1533 1533 1532 1527 1521 1519 1528 1530 1530 1533 1534 1532 1532 1529 1528 1529 1530 1529 1528
1507 1511 1515 1518 1521 1524 1527 1529 1531 1532 1533 1534 1535 1535 1536 1535 1535 1534 1531 1532 1533 1533 1534 1533 1532 1533 1532 1532 1532 1530 1522 1527 1530 1533 1535 1533 1533 1532 1531 1527 1527 1528 1529 1528 1526
1501 1505 1509 1513 1517 1520 1523 1526 1528 1529 1531 1532 1533 1534 1534 1535 1534 1531 1531 1531 1532 1532 1532 1532 1533 1532 1531 1528 1532 1530 1531 1530 1531 1533 1533 1532 1532 1530 1530 1528 1529 1527 1526 1524 1523
1494 1499 1503 1507 1512 1516 1519 1522 1524 1526 1528 1529 1531 1532 1533 1535 1532 1530 1530 1531 1531 1532 1532 1532 1532 1532 1528 1530 1531 1530 1530 1532 1531 1532 1531 1530 1530 1529 1526 1527 1527 1526 1525 1523 1520
1487 1492 1497 1501 1506 1511 1514 1518 1521 1523 1525 1527 1528 1529 1532 1533 1527 1526 1528 1529 1529 1532 1532 1533 1533 1533 1533 1532 1530 1533 1532 1529 1528 1527 1527 1527 1524 1527 1525 1526 1524 1525 1523 1521 1518
1479 1485 1490 1495 1500 1505 1510 1514 1517 1520 1522 1524 1525 1527 1528 1526 1524 1524 1526 1527 1529 1530 1532 1532 1533 1533 1535 1533 1533 1533 1530 1525 1521 1523 1523 1525 1520 1520 1522 1523 1521 1522 1521 1519 1517
1471 1477 1483 1489 1494 1500 1506 1510 1513 1517 1519 1521 1523 1525 1523 1518 1519 1521 1522 1525 1526 1528 1530 1532 1533 1534 1534 1534 1532 1529 1530 1522 1518 1522 1522 1524 1514 1516 1520 1522 1519 1520 1520 1518 1516
1462 1468 1475 1482 1489 1495 1501 1506 1509 1513 1516 1520 1523 1524 1520 1513 1514 1516 1517 1520 1523 1525 1528 1532 1533 1533 1533 1528 1525 1526 1516 1520 1517 1520 1519 1520 1513 1513 1518 1518 1517 1518 1518 1518 1515
1452 1459 1467 1475 1482 1490 1496 1502 1506 1510 1514 1519 1521 1526 1513 1510 1509 1511 1513 1517 1521 1524 1529 1532 1530 1527 1526 1524 1515 1506 1516 1518 1517 1513 1517 1515 1512 1510 1515 1517 1516 1516 1516 1516 1514
1447 1450 1457 1467 1475 1483 1489 1496 1508 1512 1508 1505 1507 1505 1505 1506 1509 1510 1511 1517 1519 1522 1521 1526 1522 1517 1511 1515 1512 1518 1519 1516 1511 1516 1521 1511 1509 1508 1510 1513 1512 1513 1516 1515 1512
1440 1442 1450 1458 1467 1474 1480 1482 1487 1489 1499 1498 1502 1503 1503 1504 1507 1508 1511 1514 1516 1512 1517 1524 1515 1508 1515 1517 1520 1519 1519 1514 1511 1516 1520 1508 1506 1502 1507 1511 1512 1513 1514 1513 1511
1432 1438 1443 1448 1459 1470 1470 1480 1486 1488 1491 1493 1493 1496 1499 1504 1502 1501 1506 1509 1508 1508 1510 1502 1504 1508 1517 1518 1520 1517 1516 1511 1516 1510 1509 1510 1498 1493 1506 1509 1511 1511 1511 1511 1510
1425 1432 1439 1441 1449 1457 1466 1479 1483 1488 1492 1480 1487 1484 1491 1499 1497 1496 1500 1505 1506 1504 1506 1505 1503 1511 1511 1511 1513 1512 1510 1512 1514 1516 1508 1507 1499 1493 1498 1502 1506 1508 1509 1509 1509
1420 1423 1432 1435 1439 1445 1458 1473 1481 1487 1499 1463 1473 1475 1478 1483 1482 1487 1495 1500 1496 1502 1505 1499 1505 1507 1505 1506 1511 1507 1510 1510 1510 1510 1509 1503 1508 1478 1494 1497 1500 1505 1508 1509 1509
1413 1418 1424 1431 1433 1440 1450 1464 1476 1496 1478 1458 1464 1467 1474 1476 1477 1484 1489 1496 1497 1498 1501 1496 1503 1502 1502 1507 1510 1511 1512 1513 1513 1510 1513 1497 1498 1475 1483 1487 1497 1504 1507 1509 1509
1407 1414 1419 1423 1424 1429 1441 1457 1478 1467 1461 1453 1455 1461 1464 1467 1472 1476 1479 1484 1483 1498 1493 1496 1498 1501 1503 1506 1508 1508 1511 1512 1516 1513 1503 1493 1493 1477 1483 1490 1493 1500 1505 1508 1509
1401 1406 1410 1417 1421 1423 1430 1450 1451 1441 1442 1434 1444 1453 1458 1461 1465 1468 1472 1473 1476 1476 1474 1489 1496 1493 1494 1491 1498 1502 1501 1496 1511 1499 1488 1501 1496 1475 1481 1490 1494 1499 1504 1507 1508
1397 1401 1404 1412 1415 1413 1424 1431 1425 1416 1423 1431 1443 1452 1455 1455 1453 1462 1460 1461 1465 1470 1474 1479 1481 1481 1485 1489 1489 1496 1495 1489 1506 1509 1507 1480 1478 1482 1487 1491 1495 1498 1502 1505 1506
1388 1393 1394 1403 1409 1409 1409 1411 1416 1410 1415 1422 1426 1434 1443 1448 1448 1451 1455 1449 1458 1463 1469 1471 1478 1480 1484 1488 1488 1488 1490 1506 1501 1510 1506 1472 1473 1467 1483 1486 1490 1493 1497 1500 1503
1384 1384 1376 1392 1403 1398 1392 1407 1412 1406 1407 1410 1408 1423 1423 1435 1438 1443 1441 1444 1450 1456 1466 1466 1469 1485 1484 1481 1478 1489 1484 1486 1486 1485 1487 1479 1458 1457 1467 1472 1479 1484 1490 1495 1499
1373 1374 1372 1375 1385 1385 1390 1400 1398 1400 1404 1405 1403 1407 1414 1421 1431 1435 1433 1433 1442 1450 1459 1462 1465 1474 1474 1470 1471 1472 1476 1478 1485 1484 1479 1478 1462 1460 1462 1469 1475 1479 1484 1489 1494
1366 1368 1367 1365 1358 1372 1388 1393 1390 1396 1402 1401 1402 1399 1407 1417 1429 1430 1432 1437 1441 1445 1449 1458 1466 1477 1481 1477 1473 1470 1468 1468 1471 1474 1475 1487 1464 1462 1466 1467 1471 1474 1481 1486 1490
1362 1354 1355 1348 1355 1363 1375 1379 1385 1390 1396 1398 1399 1403 1409 1416 1417 1423 1430 1439 1439 1442 1446 1451 1446 1448 1452 1447 1447 1466 1463 1463 1468 1476 1468 1454 1455 1453 1464 1464 1467 1471 1476 1481 1486
1348 1343 1342 1336 1341 1350 1362 1374 1370 1380 1388 1394 1401 1399 1406 1414 1420 1422 1426 1438 1444 1444 1445 1447 1450 1451 1447 1450 1449 1448 1454 1459 1462 1454 1463 1445 1452 1441 1449 1459 1461 1464 1471 1476 1480
1339 1343 1337 1334 1339 1342 1352 1356 1362 1371 1373 1388 1393 1399 1401 1403 1409 1417 1423 1428 1434 1448 1444 1443 1447 1455 1455 1449 1455 1454 1449 1447 1450 1449 1449 1445 1441 1438 1443 1453 1459 1461 1464 1469 1472
1331 1336 1339 1335 1333 1344 1337 1349 1357 1365 1374 1373 1382 1389 1396 1393 1406 1412 1419 1421 1426 1434 1439 1443 1444 1452 1447 1451 1462 1464 1434 1443 1443 1440 1441 1444 1428 1439 1444 1448 1449 1453 1456 1460 1465